Alexandria, LA

10:45 AM CST on December 16, 2017 (GMT -0600)
Alexandria International

Weather History for KAEX - January, 2011

Change the Weather History Date:

Saturday, January 22, 2011

  Actual Average Record
Temperature  
Mean Temperature 40 °F 49 °F  
Max Temperature 54 °F 59 °F 80 °F (1982)
Min Temperature 25 °F 38 °F 15 °F (1985)
Degree Days  
Heating Degree Days 25 16  
Month to date heating degree days 442 352  
Since 1 July heating degree days 1249 1141  
Moisture  
Dew Point 26 °F    
Average Humidity 62    
Maximum Humidity 92    
Minimum Humidity 32    
Precipitation  
Precipitation 0.00 in 0.18 in 3.65 in (1916)
Month to date precipitation 1.59 3.48  
Year to date precipitation 1.59 3.48  
Snow  
Snow 0.00 in - 5.00 in (1935)
Month to date snowfall 0.0  
Since 1 July snowfall 0.0  
Snow Depth 0.00 in    
Sea Level Pressure  
Sea Level Pressure 30.07 in    
Wind  
Wind Speed 3 mph (SSE)    
Max Wind Speed 8 mph    
Max Gust Speed 12 mph    
Visibility 10 miles    
Events      
T = Trace of Precipitation, MM = Missing Value Source: NWS Daily Summary

Daily Weather History Graph

Daily Weather History Graph

Search for Another Location

Airport or City:

Trip Planner

Search our weather history database for the weather conditions in past years. The results will help you decide how hot, cold, wet, or windy it might be!

Date:

Astronomy

Jan. 22, 2011 Rise Set
Actual Time 7:07 AM CST 5:36 PM CST
Civil Twilight 6:41 AM CST 6:01 PM CST
Nautical Twilight 6:12 AM CST 6:31 PM CST
Astronomical Twilight 5:43 AM CST 7:00 PM CST
Moon 9:07 PM CST (1/22) 8:49 AM CST (1/22)
Length of Visible Light 11h 20m
Length of Day
10h 28m
Waning Gibbous, 89% of the Moon is Illuminated
Jan 22
Waning Gibbous
Jan 26
Last Quarter
Feb 2
New
Feb 11
First Quarter
Feb 18
Full

Hourly Weather History & Observations

Time (CST) Temp. Windchill Dew Point Humidity Pressure Visibility Wind Dir Wind Speed Gust Speed Precip Events Conditions
12:53 AM 28.9 °F - 25.0 °F 85% 30.08 in 10.0 mi Calm Calm - N/A   Clear
1:53 AM 27.0 °F - 24.1 °F 89% 30.08 in 10.0 mi Calm Calm - N/A   Clear
2:53 AM 27.0 °F - 23.0 °F 85% 30.09 in 10.0 mi Calm Calm - N/A   Clear
3:53 AM 27.0 °F - 23.0 °F 85% 30.09 in 10.0 mi Calm Calm - N/A   Mostly Cloudy
4:53 AM 28.0 °F - 26.1 °F 92% 30.09 in 10.0 mi Calm Calm - N/A   Overcast
5:53 AM 27.0 °F - 23.0 °F 85% 30.10 in 10.0 mi Calm Calm - N/A   Clear
6:53 AM 26.1 °F - 23.0 °F 88% 30.10 in 10.0 mi Calm Calm - N/A   Clear
7:53 AM 28.0 °F - 24.1 °F 85% 30.12 in 10.0 mi Calm Calm - N/A   Clear
8:53 AM 32.0 °F 26.4 °F 28.0 °F 85% 30.15 in 10.0 mi WSW 5.8 mph - N/A   Clear
9:53 AM 37.9 °F - 26.1 °F 62% 30.16 in 10.0 mi Calm Calm - N/A   Clear
10:53 AM 43.0 °F 39.5 °F 25.0 °F 49% 30.16 in 10.0 mi West 5.8 mph - N/A   Clear
11:53 AM 46.9 °F - 24.1 °F 41% 30.13 in 10.0 mi Variable 6.9 mph - N/A   Clear
12:53 PM 48.9 °F - 24.1 °F 38% 30.08 in 10.0 mi SSW 3.5 mph - N/A   Clear
1:53 PM 51.1 °F - 24.1 °F 35% 30.05 in 10.0 mi Variable 3.5 mph - N/A   Clear
2:53 PM 51.1 °F - 24.1 °F 35% 30.03 in 10.0 mi Calm Calm - N/A   Clear
3:53 PM 53.1 °F - 25.0 °F 34% 30.02 in 10.0 mi Calm Calm - N/A   Clear
4:53 PM 52.0 °F - 26.1 °F 37% 30.00 in 10.0 mi SE 6.9 mph - N/A   Clear
5:53 PM 41.0 °F 37.1 °F 28.0 °F 60% 30.00 in 10.0 mi SE 5.8 mph - N/A   Clear
6:53 PM 41.0 °F 37.1 °F 28.0 °F 60% 30.01 in 10.0 mi SSE 5.8 mph - N/A   Clear
7:53 PM 39.9 °F 36.7 °F 28.9 °F 65% 30.02 in 10.0 mi SSE 4.6 mph - N/A   Clear
8:53 PM 39.0 °F 36.8 °F 28.9 °F 67% 30.03 in 10.0 mi East 3.5 mph - N/A   Clear
9:53 PM 35.1 °F 32.2 °F 28.0 °F 76% 30.07 in 10.0 mi ESE 3.5 mph - N/A   Clear
10:53 PM 34.0 °F 29.8 °F 28.9 °F 82% 30.07 in 10.0 mi SE 4.6 mph - N/A   Clear
11:53 PM 33.1 °F 30.0 °F 27.0 °F 78% 30.07 in 10.0 mi SSE 3.5 mph - N/A   Clear